Terug naar catalogus

CRRES DEB

CANISTER

ActiefHEO
NORAD 21637·DEBRIS·🇺🇸 United States

Gelanceerd Jul 25, 1990 vanaf Cape Canaveral Space Force Station

Loading…

Volgende Passages (komende 24 uur)

TLE

VersSource: Space-Track

Epoch: Sep 13, 2026, 11:06 UTC

1 21637U 90065P   26256.46279472  .00000354  00000-0  61720-3 0  9992
2 21637  17.9755 103.9599 6899437 232.8679  42.4987  2.70416089325960

Volg CRRES DEB in realtime met AllMySat

Download on the App Store